Regional Weather Roundup
Issued by NWS

Home | Current Version | Previous Version | Text Only | Print | Product List | Glossary On
Versions: 1 2 3 4 5 6 7 8 9 10 11 12 13 14 15 16 17 18 19 20 21 22 23 24 25 26 27 28 29 30 31 32 33 34 35 36 37 38 39 40 41 42 43 44 45 46 47 48 49 50
000
ASUS42 KKEY 230910
RWRKEY

FLORIDA REGIONAL WEATHER ROUNDUP FOR THE FLORIDA KEYS
NATIONAL WEATHER SERVICE KEY WEST FLORIDA
500 AM EDT THU MAR 23 2017

...SOUTH FLORIDA AND THE KEYS...

CITY           SKY/WX    TMP DP  RH WIND       PRES   REMARKS
FORT MYERS     CLEAR     67  64  90 NW3       30.12R
SW REGIONAL AP PTCLDY    64  62  93 NW6       30.11F
NAPLES         CLEAR     68  66  93 NW3       30.11F
MIAMI          CLEAR     67  60  78 CALM      30.10F
WEST KENDALL   CLEAR     59  57  93 NW5       30.11S
HOMESTEAD      CLEAR     62  60  94 NW3       30.10S
MARATHON       CLEAR     71  65  81 N9        30.10F
BOCA CHICA NAS CLEAR     69  63  81 N10       30.11F
KEY WEST INTL  CLEAR     70  64  81 N8        30.11F

...INTERNATIONAL WEATHER...

CITY           SKY/WX    TMP DP  RH WIND       PRES   REMARKS
NASSAU BAHAMAS   N/A     59  54  82 CALM      30.10
CANCUN MEXICO  PTCLDY    68  61  77 N3        30.07F
COZUMEL MEXICO   N/A    N/A N/A N/A MISG        N/A

ADJACENT COASTAL WATERS...

STATION/POSITION TIME  SKY/WX   TEMP    WIND        PRES    WAVE
                                AIR SEA DIR/SP/G            HT/PER
                 (UTC)          (F)     (DEG/KT/KT) (MB)    (FT/S)
PULASKI SHOAL LI 0900            70     360/  6/  7 1019.6F
SAND KEY         0850            70      10/ 12/ 14 1020.0F
LONG KEY         0800            70 72  350/ 10/ 12 1019.9F
MOLASSES REEF    0700            71 74  330/ 10/ 11 1020.1F
FOWEY ROCKS      0800            69 74  300/  5/  6 1019.9F
Buoy 42097       0900                                 N/A     1/ 5

$$



USA.gov is the U.S. government's official web portal to all federal, state and local government web resources and services.